Regional Weather Roundup
Issued by NWS

Home | Current Version | Previous Version | Text Only | Print | Product List | Glossary Off
Versions: 1 2 3 4 5 6 7 8 9 10 11 12 13 14 15 16 17 18 19 20 21 22 23 24 25 26 27 28 29 30 31 32 33 34 35 36 37 38 39 40 41 42 43 44 45 46 47 48 49 50

436
ASUS45 KTFX 250410
RWRMT
MONTANA REGIONAL WEATHER ROUNDUP
NATIONAL WEATHER SERVICE GREAT FALLS MT
1000 PM MDT SAT SEP 24 2016

NOTE: "FAIR" INDICATES FEW OR NO CLOUDS BELOW 12000 FEET WITH NO
SIGNIFICANT WEATHER AND/OR OBSTRUCTIONS TO VISIBILITY.

MTZ001>007-043-250500-
WEST OF THE DIVIDE

CITY           SKY/WX    TMP DP  RH WIND       PRES   REMARKS
KALISPELL      CLEAR     48  35  60 SE3       30.32R
MISSOULA       CLEAR     51  37  58 N3        30.37S
BUTTE          CLEAR     42  31  64 N5        30.41R
MULLAN PASS    CLEAR     40  33  76 VRB3      30.40S
ANACONDA         N/A     46  30  53 W10       30.40R
DEER LODGE       N/A     48  32  53 CALM      30.41R
EUREKA           N/A     54  36  50 NE5       30.30R
HAMILTON         N/A     45  36  70 SE3       30.40R
LIBBY            N/A     46  37  71 S6        30.31R
PLAINS           N/A     46  34  63 CALM      30.34S
RONAN            N/A     51  37  58 SW1       30.37R
$$

MTZ008-052>055-250500-
SOUTHWEST MONTANA

CITY           SKY/WX    TMP DP  RH WIND       PRES   REMARKS
BOZEMAN        CLEAR     44  34  67 S6        30.36R
DILLON         CLEAR     41  34  76 SE6       30.37R
W YELLOWSTONE    N/A     36  30  80 CALM      30.40R
ENNIS          CLEAR     37  30  75 SE6       30.41R
THREE FORKS      N/A     45  38  76 CALM      30.31R
TWIN BRIDGES     N/A     48  30  50 N3        30.31R
$$

MTZ009-010-012-014-046-048-049-054-250500-
EAST SLOPES AND CENTRAL MONTANA

CITY           SKY/WX    TMP DP  RH WIND       PRES   REMARKS
CUT BANK       CLEAR     45  40  82 CALM      30.26R
GREAT FALLS    CLEAR     43  38  82 SE6       30.29R
MALMSTROM AFB  PTCLDY    45  41  85 SW8       30.29R
HELENA         CLEAR     51  34  52 W9        30.32R
CHOTEAU          N/A     46  34  61 S6        30.30R
CONRAD           N/A     38  38 100 NW3       30.26R
$$

MTZ011-013-016-021-045-047-050-051-250500-
NORTH CENTRAL MONTANA

CITY           SKY/WX    TMP DP  RH WIND       PRES   REMARKS
HAVRE          CLEAR     46  41  82 SW6       30.22R
LEWISTOWN      CLOUDY    48  42  80 W10       30.27R
N BAR RANCH    CLOUDY    48  39  71 W8        30.28R
CHINOOK          N/A     45  39  81 SW5       30.20R
$$

MTZ017>020-022>027-061-062-250500-
NORTHEAST MONTANA

CITY           SKY/WX    TMP DP  RH WIND       PRES   REMARKS
GLASGOW        CLOUDY    53  47  79 W14       30.09R
JORDAN           N/A     52  44  74 NW14      30.13R
SIDNEY         LGT RAIN  51  48  89 NW21G31   29.95
WOLF POINT     MOCLDY    53  48  83 NW16      30.04R
PLENTYWOOD       N/A     48  48 100 NW21G26   29.96R
POPLAR           N/A     54  48  82 NW13      30.02R
SCOBEY           N/A     50  43  77 NW14      30.01R
$$

MTZ028>42-056>058-250500-
SOUTHCENTRAL AND SOUTHEAST MONTANA

CITY           SKY/WX    TMP DP  RH WIND       PRES   REMARKS
BAKER          RAIN      48  32  53 NW32G48   30.00R
BILLINGS       CLOUDY    54  41  61 N12       30.26R
LIVINGSTON     CLOUDY    52  31  44 W14       30.32R
MILES CITY     LGT RAIN  51  46  83 W15       30.12R
BIG TIMBER     CLOUDY    54  34  47 W14G23    30.31R
EKALAKA          N/A     47  44  89 W26       30.02R
FORSYTH          N/A     52  52 100 W9        30.17R
LAUREL           N/A     54  39  56 NW9       30.23R
ROUNDUP          N/A     55  39  54 W15       30.13S
$$

REGIONAL REPORTS...DAKOTAS

CITY           SKY/WX    TMP DP  RH WIND       PRES   REMARKS
WILLISTON      LGT RAIN  52  47  83 N25G36    29.89R
MINOT          CLOUDY    58  55  90 NW15      29.75R
DICKINSON      LGT RAIN  51  49  92 NW28G36   29.80R FOG
CROSBY         CLOUDY    50  50 100 NW23G30   29.90R
WATFORD CITY   CLOUDY    50  50 100 NW23G35   29.87R
BISMARCK       CLOUDY    58  51  78 S12       29.75F
GRAND FORKS    CLOUDY    68  65  90 S13       29.73F
FARGO          CLOUDY    70  67  90 S16G23    29.79S
BUFFALO SD       N/A     50  48  93 W36G44    29.87R
RAPID CITY     CLOUDY    53  41  63 NW25G36   30.03R
$$

REGIONAL REPORTS...WYOMING/IDAHO/WASHINGTON

CITY           SKY/WX    TMP DP  RH WIND       PRES   REMARKS
GILLETTE       LGT RAIN  46  44  93 NW14G24   30.19R
SHERIDAN       CLOUDY    49  44  83 N12       30.25R
BUFFALO WY     CLOUDY    51  35  54 NW24G35   30.23R
CODY           CLOUDY    49  41  74 SW5       30.31R
YELLOWSTONE LA   N/A     31  29  92 NW5       30.44R
IDAHO FALLS    CLEAR     50  38  63 S14       30.37R
SALMON         CLEAR     45  34  65 CALM      30.38R
BOISE          CLEAR     56  35  45 CALM      30.33R
SPOKANE        PTCLDY    57  35  43 SW8       30.34R
$$

REGIONAL REPORTS...ALBERTA

CITY           SKY/WX    TMP DP  RH WIND       PRES   REMARKS
EDMONTON       PTCLDY    45  32  61 W7        30.14R
CALGARY        MOCLDY    52  25  35 W6        30.21R
LETHBRIDGE     CLEAR     43  39  87 S14       30.21R
MEDICINE HAT   CLEAR     41  37  87 S7        30.18R
$$

REGIONAL REPORTS...SASKATCHEWAN

CITY           SKY/WX    TMP DP  RH WIND       PRES   REMARKS
SWIFT CURRENT  CLEAR     43  37  81 NW13      30.10R
REGINA         CLOUDY    50  48  93 NW17G23   29.97R
SASKATOON      CLEAR     45  41  87 NW10      30.02R
$$




USA.gov is the U.S. government's official web portal to all federal, state and local government web resources and services.